Terminal Aerodrome Forecast
Issued by NWS

Home | Current Version | Previous Version | Text Only | Print | Product List | Glossary On
Versions: 1 2 3 4 5 6 7 8 9 10 11 12 13 14 15 16 17 18 19 20 21 22 23 24 25 26 27 28 29 30 31 32 33 34 35 36 37 38 39 40 41 42 43 44 45 46 47 48 49 50
000
FTUS44 KHGX 082002 AAA
TAFIAH
TAF AMD
KIAH 082002Z 0820/0924 01019G25KT P6SM FEW025 OVC120
     FM082300 01013KT P6SM OVC110
     FM090900 01006KT P6SM SCT080 BKN250
     FM091500 04011KT P6SM SCT250=

USA.gov is the U.S. government's official web portal to all federal, state and local government web resources and services.